Weather in Hat Creek

United States     40°50′31″N   121°25′37″W
temp.,
°C
wind,
m/s
gust,
m/s
humid.,
%
clouds,
%
prec.,
mm/h
press.,
hPa
HPBL,
m
16 may, sun
sun1623:00+10sw225970 0.1 101213
02:00+8w017145 0.0 101211
05:00+7wsw01591 0.0 101312
08:00+13nne23430 0.0 1013335
11:00+19nne35290 0.0 10121590
14:00+22nne34235 0.0 10102621
17:00+23nne141943 0.0 10083162
20:00+16sw224294 0.0 101024
17 may, mon
mon1723:00+11ssw33550 0.0 101342
02:00+9sw22680 0.0 101418
05:00+8s22780 0.0 101416
08:00+15nw12560 0.0 1013374
11:00+20nw35360 0.0 10121775
14:00+22w56294 0.0 10112094
17:00+21wsw57270 0.0 10101541
20:00+14sw36555 0.0 1013175
18 may, tue
tue1823:00+10ssw3564100 0.0 101596
02:00+8ssw3341100 0.0 101556
05:00+7ssw22655 0.0 101633
08:00+13w134519 0.0 1015608
11:00+18w352515 0.0 10131636
14:00+20wsw572320 0.0 10111748
17:00+18wsw57240 0.0 10101708
20:00+12sw34430 0.0 1011105
19 may, wed
wed1923:00+8ssw34590 0.0 101267
02:00+6ssw225292 0.0 101232
05:00+3wsw115599 0.0 101316
08:00+7nnw21440 0.0 1012658
11:00+12nnw353227 0.0 10091889
14:00+14w56250 0.0 10082199
17:00+13wsw44212 0.0 10072349
20:00+8wnw123980 0.0 100884
20 may, thu
thu2023:00+2sse226093 0.0 101221
02:00+1e1281100 0.7 1013129
05:00−1nnw2499100 4.1 1013218
08:00−1nw3898100 6.3 1014627
11:000nnw41099100 11.8 1014870
14:00+1nnw4999100 4.1 1015769
17:00+2nnw3697100 6.7 1015541
20:00+1nnw279187 0.6 1015569